Regional Weather Roundup
Issued by NWS Cleveland, OH

Home | Current Version | Previous Version | Graphics & Text | Print | Product List | Glossary On
Versions: 1 2 3 4 5 6 7 8 9 10 11 12 13 14 15 16 17 18 19 20 21 22 23 24 25 26 27 28 29 30 31 32 33 34 35 36 37 38 39 40 41 42 43 44 45 46 47 48 49 50
000
ASUS41 KCLE 040210
RWRCLE
OHIO REGIONAL WEATHER ROUNDUP
NATIONAL WEATHER SERVICE WILMINGTON, OH
1000 PM EDT THU SEP 03 2015

NOTE: "FAIR" INDICATES FEW OR NO CLOUDS BELOW 12,000 FEET WITH NO
SIGNIFICANT WEATHER AND/OR OBSTRUCTIONS TO VISIBILITY.

OHZ001>008-015>018-024>027-034-035-043-044-040300-
   NORTHWEST OHIO

CITY           SKY/WX    TMP DP  RH WIND       PRES   REMARKS
DEFIANCE       PTCLDY    79  68  69 SW3       29.91R
FINDLAY        PTCLDY    76  69  79 S7        29.93R
TOLEDO EXPRESS MOCLDY    73  70  90 SE6       29.91R
TOLEDO EXEC    TSTM      72  67  84 NE9       29.95R
LIMA           PTCLDY    76  69  79 S3        29.95R
$$

OHZ009>014-019>023-028>033-038-089-040300-
   NORTHEAST OHIO

CITY           SKY/WX    TMP DP  RH WIND       PRES   REMARKS
CLE-HOPKINS    CLOUDY    73  65  75 W8        30.00R THUNDER
CLE-LAKEFRONT  MOCLDY    77  69  76 N5        29.96R
CUY CO. ARPT   MOCLDY    73  66  78 S7        29.97R
LORAIN-ELYRIA  CLOUDY    71  68  90 NW12G18   30.01R
ASHTABULA      MOCLDY    69  67  93 CALM      29.97R
AKRON-CANTON   MOCLDY    67  64  90 CALM      29.99R FOG
WOOSTER        MOCLDY    67  65  93 CALM      29.99R FOG
MANSFIELD      MOCLDY    72  68  87 S9        29.99R THUNDER
YOUNGSTOWN     MOCLDY    68  67  96 E5        29.98R
$$

OHZ042-051>053-060>062-070>072-077>081-040300-
  SOUTHWEST OHIO

CITY           SKY/WX    TMP DP  RH WIND       PRES   REMARKS
CINC-COVINGTON CLEAR     75  66  73 CALM      29.97R
CINC-LUNKEN    CLEAR     72  69  90 CALM      29.96R
HAMILTON       CLEAR     71  68  90 CALM      29.97R
DAYTON         MOCLDY    81  66  60 S6        29.98R
WRIGHT-PAT AFB PTCLDY    76  68  77 CALM      29.96R
DAYTON GENERAL CLEAR     76  66  71 CALM      29.97R
WILMINGTON     CLEAR     72  69  90 CALM      29.98R
$$

OHZ036-037-039>041-045>050-054>059-063>069-073>076-082>088-040300-
  CENTRAL AND SOUTHEAST OHIO

CITY           SKY/WX    TMP DP  RH WIND       PRES   REMARKS
COLUMBUS       CLOUDY    69  68  96 E3        29.95S
OSU AIRPORT    MOCLDY    73  67  81 SW3       29.96S
BOLTON FIELD   MOCLDY    70  66  85 CALM      29.98S
RICKENBACK AFB MOCLDY    70  63  76 CALM      29.96F
NEWARK         MOCLDY    70  65  84 CALM      29.97S
MARION         MOCLDY    74  66  76 S9        29.97R
LANCASTER      LGT RAIN  69  66  90 SE6       29.97F
ZANESVILLE     PTCLDY    69  66  90 CALM      29.99R
NEW PHILLY     MOCLDY    68  67  96 W3        29.99R FOG
$$



USA.gov is the U.S. government's official web portal to all federal, state and local government web resources and services.